Regional Weather Roundup
Issued by NWS

Home | Current Version | Previous Version | Graphics & Text | Print | Product List | Glossary On
Versions: 1 2 3 4 5 6 7 8 9 10 11 12 13 14 15 16 17 18 19 20 21 22 23 24 25 26 27 28 29 30 31 32 33 34 35 36 37 38 39 40 41 42 43 44 45 46 47 48 49 50
000
ASUS43 KFSD 020910
RWRSD

WEATHER ROUNDUP FOR SOUTH DAKOTA
NATIONAL WEATHER SERVICE SIOUX FALLS SD
300 AM CST MON MAR 02 2015

NOTE: "FAIR" INDICATES FEW OR NO CLOUDS BELOW 12,000 FEET WITH NO
SIGNIFICANT WEATHER AND/OR OBSTRUCTIONS TO VISIBILITY.


SDZ001>005-009-010-012>017-021000-
NORTHWEST AND NORTH CENTRAL SOUTH DAKOTA

CITY           SKY/WX    TMP DP  RH WIND       PRES   REMARKS
BUFFALO          N/A      9   3  77 SE10      30.06F WCI  -5
FAITH            N/A      8   3  80 SE12      30.23F WCI  -7
MOBRIDGE       PTCLDY     8   4  83 SE8       30.31F WCI  -4
$$

SDZ012>016-024>037-041>051-057-063-072>074-021000-
SOUTHWEST AND SOUTH CENTRAL SOUTH DAKOTA

CITY           SKY/WX    TMP DP  RH WIND       PRES   REMARKS
RAPID CTY ARPT PTCLDY    13   6  74 SE5       30.18F WCI   5
PIERRE         CLEAR     10   7  87 SE5       30.36F WCI   2
CUSTER         PTCLDY    10   3  73 SW5       30.05F WCI   2
ELLSWORTH AFB  PTCLDY    18   7  62 S13       30.16F WCI   4
PHILIP         PTCLDY     2  -4  76 CALM      30.30F
PINE RIDGE     PTCLDY    22   8  55 S9        30.20F WCI  12
WINNER         FAIR      13   3  64 SE9       30.36F WCI   1
$$

SDZ004>011-016>023-039-040-021000-
NORTHEAST SOUTH DAKOTA

CITY           SKY/WX    TMP DP  RH WIND       PRES   REMARKS
ABERDEEN       MOCLDY    -1  -5  82 S3        30.42S
WATERTOWN      MOCLDY    -2  -5  87 S7        30.40S WCI -15
SISSETON         N/A      6   0  76 SW5       30.41F WCI  -3
$$

SDZ017-020-022-023-036>040-048>070-021000-
SOUTHEAST SOUTH DAKOTA

CITY           SKY/WX    TMP DP  RH WIND       PRES   REMARKS
SIOUX FALLS    PTCLDY     7   4  87 CALM      30.44F
HURON          MOCLDY     4   1  88 S3        30.44S
CHAMBERLAIN    PTCLDY    10   7  85 SE6       30.40F WCI   1
MITCHELL       CLEAR     10   6  84 SW3       30.47R
YANKTON        MOCLDY    16  10  79 CALM      30.48S
$$

ABBREVIATIONS USED IN REMARKS
   TC - TEMPERATURE IN CELSIUS
  WCI - WIND CHILL INDEX
   HX - HEAT INDEX
  VSB - VISIBILITY




USA.gov is the U.S. government's official web portal to all federal, state and local government web resources and services.